When you browse on this site, cookies collect data to enhance your experience and personalize the content and advertising you see.
Visit our Privacy Policy to learn more. By continuing to use the site, you agree to this use of cookies and data.

Stündliche Wetter Bolshie Gory

Heute, 27 September, Sonntag

Zeit Temperatur Niederschläge Wind Luftdruck Luftfeuchtigkeit
00:00 +12°C° 0 mm 3 m/S 759 mmHg 90%
01:00 +11°C° 0 mm 3 m/S 759 mmHg 92%
02:00 +11°C° 0 mm 3 m/S 759 mmHg 94%
03:00 +11°C° 0 mm 3 m/S 759 mmHg 95%
04:00 +10°C° 0 mm 3 m/S 760 mmHg 95%
05:00 +10°C° 0 mm 3 m/S 760 mmHg 95%
06:00 +11°C° 0 mm 3 m/S 760 mmHg 91%
07:00 +12°C° 0 mm 3 m/S 760 mmHg 86%
08:00 +13°C° 0 mm 3 m/S 760 mmHg 82%
09:00 +15°C° 0 mm 2 m/S 760 mmHg 76%
10:00 +17°C° 0 mm 2 m/S 761 mmHg 71%
11:00 +18°C° 0 mm 2 m/S 761 mmHg 65%
12:00 +19°C° 0 mm 2 m/S 761 mmHg 63%
13:00 +20°C° 0 mm 2 m/S 761 mmHg 61%
14:00 +21°C° 0 mm 2 m/S 761 mmHg 59%
15:00 +19°C° 0 mm 2 m/S 761 mmHg 65%
16:00 +18°C° 0 mm 2 m/S 761 mmHg 71%
17:00 +17°C° 0 mm 2 m/S 760 mmHg 77%
18:00 +16°C° 0 mm 2 m/S 761 mmHg 80%
19:00 +14°C° 0 mm 3 m/S 761 mmHg 83%
20:00 +13°C° 0 mm 3 m/S 761 mmHg 86%
21:00 +13°C° 0 mm 3 m/S 761 mmHg 87%
22:00 +13°C° 0 mm 3 m/S 761 mmHg 88%
23:00 +12°C° 0 mm 3 m/S 761 mmHg 89%

Morgen, 28 September, Montag

Zeit Temperatur Niederschläge Wind Luftdruck Luftfeuchtigkeit
00:00 +12°C° 0 mm 3 m/S 761 mmHg 89%
01:00 +11°C° 0 mm 3 m/S 761 mmHg 89%
02:00 +11°C° 0 mm 3 m/S 761 mmHg 89%
03:00 +10°C° 0 mm 3 m/S 761 mmHg 88%
04:00 +9°C° 0 mm 3 m/S 761 mmHg 87%
05:00 +9°C° 0 mm 3 m/S 761 mmHg 86%
06:00 +9°C° 0 mm 3 m/S 761 mmHg 82%
07:00 +10°C° 0 mm 3 m/S 761 mmHg 78%
08:00 +11°C° 0 mm 3 m/S 761 mmHg 73%
09:00 +12°C° 0 mm 3 m/S 761 mmHg 68%
10:00 +13°C° 0 mm 3 m/S 761 mmHg 63%
11:00 +16°C° 0 mm 3 m/S 761 mmHg 58%
12:00 +16°C° 0 mm 3 m/S 761 mmHg 57%
13:00 +17°C° 0 mm 3 m/S 761 mmHg 56%
14:00 +17°C° 0 mm 3 m/S 760 mmHg 56%
15:00 +16°C° 0 mm 3 m/S 760 mmHg 61%
16:00 +14°C° 0 mm 3 m/S 760 mmHg 67%
17:00 +13°C° 0 mm 3 m/S 760 mmHg 73%
18:00 +12°C° 0.4 mm 3 m/S 760 mmHg 78%
19:00 +12°C° 0.4 mm 3 m/S 760 mmHg 83%
20:00 +11°C° 0.4 mm 3 m/S 760 mmHg 88%
21:00 +11°C° 0.1 mm 3 m/S 760 mmHg 88%
22:00 +11°C° 0.1 mm 3 m/S 760 mmHg 87%
23:00 +10°C° 0.1 mm 3 m/S 760 mmHg 87%

übermorgen, 29 September, Dienstag

Zeit Temperatur Niederschläge Wind Luftdruck Luftfeuchtigkeit
00:00 +10°C° 0 mm 3 m/S 760 mmHg 88%
01:00 +10°C° 0 mm 3 m/S 760 mmHg 90%
02:00 +8°C° 0 mm 4 m/S 760 mmHg 91%
03:00 +10°C° 0 mm 4 m/S 760 mmHg 91%
04:00 +10°C° 0 mm 4 m/S 759 mmHg 92%
05:00 +10°C° 0 mm 4 m/S 759 mmHg 92%
06:00 +10°C° 0 mm 4 m/S 759 mmHg 91%
07:00 +9°C° 0 mm 5 m/S 759 mmHg 91%
08:00 +9°C° 0 mm 5 m/S 759 mmHg 90%
09:00 +10°C° 0.4 mm 5 m/S 760 mmHg 89%
10:00 +10°C° 0.4 mm 5 m/S 760 mmHg 89%
11:00 +10°C° 0.4 mm 5 m/S 760 mmHg 88%
12:00 +10°C° 0.7 mm 5 m/S 760 mmHg 89%
13:00 +10°C° 0.7 mm 5 m/S 760 mmHg 91%
14:00 +10°C° 0.7 mm 5 m/S 760 mmHg 92%
15:00 +11°C° 0.3 mm 4 m/S 760 mmHg 92%
16:00 +11°C° 0.3 mm 3 m/S 759 mmHg 92%
17:00 +11°C° 0.3 mm 3 m/S 759 mmHg 92%
18:00 +11°C° 0 mm 3 m/S 760 mmHg 92%
19:00 +11°C° 0 mm 3 m/S 760 mmHg 92%
20:00 +10°C° 0 mm 2 m/S 760 mmHg 92%
21:00 +10°C° 0 mm 3 m/S 760 mmHg 93%
22:00 +10°C° 0 mm 3 m/S 760 mmHg 93%
23:00 +10°C° 0 mm 3 m/S 760 mmHg 93%

30 September, Mittwoch

Zeit Temperatur Niederschläge Wind Luftdruck Luftfeuchtigkeit
00:00 +10°C° 0.1 mm 3 m/S 760 mmHg 94%
01:00 +10°C° 0.1 mm 2 m/S 760 mmHg 95%
02:00 +10°C° 0.1 mm 2 m/S 760 mmHg 97%
03:00 +10°C° 0 mm 2 m/S 760 mmHg 97%
04:00 +9°C° 0 mm 2 m/S 760 mmHg 98%
05:00 +9°C° 0 mm 2 m/S 760 mmHg 98%
06:00 +10°C° 0 mm 2 m/S 760 mmHg 97%
07:00 +10°C° 0 mm 2 m/S 760 mmHg 96%
08:00 +11°C° 0 mm 3 m/S 760 mmHg 95%
09:00 +12°C° 0 mm 2 m/S 760 mmHg 93%
10:00 +13°C° 0 mm 2 m/S 760 mmHg 91%
11:00 +13°C° 0 mm 2 m/S 760 mmHg 89%
12:00 +14°C° 0 mm 2 m/S 760 mmHg 87%
13:00 +14°C° 0 mm 1 m/S 760 mmHg 85%
14:00 +15°C° 0 mm 1 m/S 760 mmHg 82%
15:00 +14°C° 0 mm 1 m/S 760 mmHg 84%
16:00 +14°C° 0 mm 1 m/S 760 mmHg 85%
17:00 +13°C° 0 mm 1 m/S 760 mmHg 87%
18:00 +12°C° 0 mm 1 m/S 761 mmHg 87%
19:00 +12°C° 0 mm 2 m/S 761 mmHg 88%
20:00 +10°C° 0 mm 2 m/S 761 mmHg 88%
21:00 +9°C° 0 mm 2 m/S 761 mmHg 89%
22:00 +9°C° 0 mm 2 m/S 761 mmHg 89%
23:00 +8°C° 0 mm 2 m/S 761 mmHg 89%

1 Oktober, Donnerstag

Zeit Temperatur Niederschläge Wind Luftdruck Luftfeuchtigkeit
00:00 +8°C° 0 mm 2 m/S 761 mmHg 90%
01:00 +8°C° 0 mm 2 m/S 761 mmHg 90%
02:00 +7°C° 0 mm 2 m/S 761 mmHg 91%
03:00 +7°C° 0 mm 2 m/S 761 mmHg 91%
04:00 +7°C° 0 mm 2 m/S 761 mmHg 91%
05:00 +6°C° 0 mm 2 m/S 761 mmHg 92%
06:00 +7°C° 0 mm 2 m/S 761 mmHg 88%
07:00 +8°C° 0 mm 3 m/S 761 mmHg 84%
08:00 +9°C° 0 mm 3 m/S 761 mmHg 80%
09:00 +10°C° 0 mm 3 m/S 761 mmHg 75%
10:00 +13°C° 0 mm 2 m/S 761 mmHg 71%
11:00 +14°C° 0 mm 2 m/S 761 mmHg 66%
12:00 +15°C° 0 mm 2 m/S 761 mmHg 63%
13:00 +16°C° 0 mm 2 m/S 761 mmHg 61%
14:00 +17°C° 0 mm 2 m/S 761 mmHg 58%
15:00 +16°C° 0 mm 2 m/S 761 mmHg 64%
16:00 +14°C° 0 mm 2 m/S 761 mmHg 71%
17:00 +13°C° 0 mm 2 m/S 761 mmHg 77%
18:00 +12°C° 0 mm 2 m/S 761 mmHg 80%
19:00 +10°C° 0 mm 3 m/S 762 mmHg 84%
20:00 +10°C° 0 mm 3 m/S 762 mmHg 87%
21:00 +9°C° 0 mm 3 m/S 762 mmHg 89%
22:00 +9°C° 0 mm 3 m/S 762 mmHg 91%
23:00 +9°C° 0 mm 3 m/S 762 mmHg 93%

2 Oktober, Freitag

Zeit Temperatur Niederschläge Wind Luftdruck Luftfeuchtigkeit
00:00 +8°C° 0 mm 3 m/S 763 mmHg 93%
01:00 +8°C° 0 mm 2 m/S 763 mmHg 94%
02:00 +8°C° 0 mm 2 m/S 763 mmHg 94%
03:00 +8°C° 0 mm 2 m/S 763 mmHg 94%
04:00 +8°C° 0 mm 3 m/S 763 mmHg 94%
05:00 +8°C° 0 mm 3 m/S 763 mmHg 93%
06:00 +9°C° 0 mm 3 m/S 763 mmHg 89%
07:00 +9°C° 0 mm 3 m/S 763 mmHg 86%
08:00 +10°C° 0 mm 3 m/S 764 mmHg 82%
09:00 +11°C° 0 mm 3 m/S 764 mmHg 76%
10:00 +13°C° 0 mm 3 m/S 764 mmHg 70%
11:00 +14°C° 0 mm 3 m/S 764 mmHg 64%
12:00 +16°C° 0 mm 3 m/S 765 mmHg 62%
13:00 +17°C° 0 mm 3 m/S 765 mmHg 59%
14:00 +18°C° 0 mm 3 m/S 765 mmHg 57%
15:00 +16°C° 0 mm 3 m/S 765 mmHg 63%
16:00 +14°C° 0 mm 3 m/S 765 mmHg 70%
17:00 +12°C° 0 mm 3 m/S 765 mmHg 76%
18:00 +12°C° 0 mm 3 m/S 765 mmHg 79%
19:00 +11°C° 0 mm 3 m/S 765 mmHg 81%
20:00 +10°C° 0 mm 3 m/S 766 mmHg 84%
21:00 +10°C° 0 mm 3 m/S 766 mmHg 86%
22:00 +10°C° 0 mm 3 m/S 766 mmHg 88%
23:00 +9°C° 0 mm 3 m/S 766 mmHg 90%
Mehr zeigen